Location: ????????
(55.4717°N, 39.1821°E)
Time: 02:47:59
(UTC+00:00)

CZ-2C R/B - Visible Passes

Search period start: 19 July 2024 00:00
Search period end: 29 July 2024 00:00
Orbit: 665 x 779 km, 98.4° (Epoch: 18 July)

Date Brightness Start Highest point End Pass type
(mag) Time Alt. Az. Time Alt. Az. Time Alt. Az.
19 Jul 4.9 23:43:25 10° NE 23:46:28 16° E 23:49:32 10° SE visible
21 Jul 5.0 23:42:55 10° NE 23:45:59 16° E 23:49:04 10° SE visible
23 Jul 5.0 23:42:25 10° NE 23:45:30 16° E 23:48:36 10° SE visible
25 Jul 5.0 23:41:54 10° NE 23:45:00 16° E 23:48:06 10° SE visible
27 Jul 4.0 00:29:43 10° NNE 00:34:21 36° E 00:39:03 10° SSE visible
27 Jul 5.0 23:41:24 10° NE 23:44:29 16° E 23:47:36 10° ESE visible
